| time (UTC) | temp F | wind direction | speed MPH | gust MPH | rain 1hr in | rain 24hr in | rain mn in | humidity % | barometer mb |
| 20260505052522 | 66 | 192 | 4.0 | 7.0 | 0.00 | 0.00 | 0.00 | 62 | 1002.6 |
| 20260505052033 | 66 | 200 | 4.0 | 8.0 | 0.00 | 0.00 | 0.00 | 62 | 1002.6 |
| 20260505051534 | 66 | 194 | 5.0 | 9.0 | 0.00 | 0.00 | 0.00 | 61 | 1002.6 |
| 20260505051038 | 66 | 185 | 6.0 | 9.0 | 0.00 | 0.00 | 0.00 | 61 | 1002.6 |
| 20260505050535 | 66 | 193 | 6.0 | 9.0 | 0.00 | 0.00 | 0.00 | 60 | 1002.5 |
| 20260505041524 | 66 | 200 | 4.0 | 8.0 | 0.00 | 0.00 | 0.00 | 56 | 1002.9 |
| 20260505041056 | 66 | 189 | 4.0 | 8.0 | 0.00 | 0.00 | 0.00 | 56 | 1002.9 |
| 20260505040525 | 67 | 191 | 4.0 | 7.0 | 0.00 | 0.00 | 0.00 | 56 | 1002.9 |
| 20260505040031 | 67 | 195 | 3.0 | 7.0 | 0.00 | 0.00 | 0.00 | 56 | 1003.0 |
| 20260505035553 | 67 | 204 | 4.0 | 7.0 | 0.00 | 0.00 | 0.00 | 56 | 1003.0 |
| 20260505035046 | 67 | 192 | 4.0 | 12.0 | 0.00 | 0.00 | 0.00 | 56 | 1002.9 |
| 20260505034534 | 66 | 190 | 5.0 | 12.0 | 0.00 | 0.00 | 0.00 | 56 | 1002.8 |
| 20260505034030 | 65 | 196 | 6.0 | 12.0 | 0.00 | 0.00 | 0.00 | 57 | 1002.8 |
| 20260505033538 | 64 | 212 | 6.0 | 11.0 | 0.00 | 0.00 | 0.00 | 58 | 1002.8 |
| 20260505033036 | 61 | 200 | 5.0 | 11.0 | 0.00 | 0.00 | 0.00 | 60 | 1003.0 |
| 20260505032542 | 60 | 200 | 4.0 | 5.0 | 0.00 | 0.00 | 0.00 | 60 | 1003.1 |
| 20260505032033 | 59 | 200 | 2.0 | 3.0 | 0.00 | 0.00 | 0.00 | 63 | 1002.9 |
| 20260505031522 | 58 | 200 | 2.0 | 3.0 | 0.00 | 0.00 | 0.00 | 63 | 1002.9 |
| 20260505031040 | 58 | 200 | 0.0 | 0.0 | 0.00 | 0.00 | 0.00 | 64 | 1002.8 |
| 20260505030525 | 58 | 200 | 0.0 | 0.0 | 0.00 | 0.00 | 0.00 | 64 | 1002.8 |
| 20260505030040 | 58 | 200 | 0.0 | 0.0 | 0.00 | 0.00 | 0.00 | 66 | 1002.8 |
| 20260505025550 | 58 | 200 | 0.0 | 0.0 | 0.00 | 0.00 | 0.00 | 64 | 1002.8 |
| 20260505025028 | 58 | 200 | 0.0 | 0.0 | 0.00 | 0.00 | 0.00 | 61 | 1002.8 |
| 20260505024521 | 58 | 200 | 0.0 | 0.0 | 0.00 | 0.00 | 0.00 | 60 | 1002.7 |
| 20260505024029 | 58 | 200 | 0.0 | 0.0 | 0.00 | 0.00 | 0.00 | 60 | 1002.7 |
| 20260505023547 | 58 | 200 | 0.0 | 0.0 | 0.00 | 0.00 | 0.00 | 59 | 1002.7 |
| 20260505023024 | 58 | 200 | 0.0 | 0.0 | 0.00 | 0.00 | 0.00 | 60 | 1002.8 |
| 20260505022545 | 58 | 200 | 0.0 | 0.0 | 0.00 | 0.00 | 0.00 | 60 | 1002.9 |
| 20260505022046 | 58 | 200 | 0.0 | 0.0 | 0.00 | 0.00 | 0.00 | 61 | 1003.0 |
| 20260505021538 | 59 | 200 | 0.0 | 0.0 | 0.00 | 0.00 | 0.00 | 61 | 1003.0 |
| 20260505021032 | 59 | 200 | 0.0 | 0.0 | 0.00 | 0.00 | 0.00 | 60 | 1003.1 |
| 20260505020526 | 59 | 200 | 0.0 | 0.0 | 0.00 | 0.00 | 0.00 | 58 | 1003.1 |
| 20260505020020 | 59 | 200 | 0.0 | 0.0 | 0.00 | 0.00 | 0.00 | 57 | 1003.1 |
| 20260505015528 | 59 | 200 | 0.0 | 0.0 | 0.00 | 0.00 | 0.00 | 57 | 1003.1 |
| 20260505015046 | 59 | 200 | 0.0 | 0.0 | 0.00 | 0.00 | 0.00 | 57 | 1003.2 |
| 20260505014554 | 60 | 200 | 0.0 | 0.0 | 0.00 | 0.00 | 0.00 | 57 | 1003.1 |
| 20260505014023 | 60 | 200 | 0.0 | 0.0 | 0.00 | 0.00 | 0.00 | 58 | 1003.0 |
| 20260505013545 | 61 | 200 | 0.0 | 0.0 | 0.00 | 0.00 | 0.00 | 57 | 1003.0 |
| 20260505013111 | 61 | 200 | 0.0 | 0.0 | 0.00 | 0.00 | 0.00 | 55 | 1003.0 |
| 20260505012539 | 62 | 200 | 0.0 | 0.0 | 0.00 | 0.00 | 0.00 | 54 | 1002.9 |
| 20260505012041 | 62 | 200 | 0.0 | 0.0 | 0.00 | 0.00 | 0.00 | 54 | 1003.0 |
| 20260505011545 | 62 | 200 | 0.0 | 0.0 | 0.00 | 0.00 | 0.00 | 53 | 1002.9 |
| 20260505011055 | 63 | 200 | 0.0 | 0.0 | 0.00 | 0.00 | 0.00 | 54 | 1002.8 |
| 20260505010526 | 63 | 200 | 0.0 | 0.0 | 0.00 | 0.00 | 0.00 | 53 | 1002.8 |
| 20260505010023 | 63 | 200 | 0.0 | 0.0 | 0.00 | 0.00 | 0.00 | 51 | 1002.7 |
| 20260505005549 | 64 | 200 | 0.0 | 0.0 | 0.00 | 0.00 | 0.00 | 54 | 1002.7 |
| 20260505005027 | 64 | 200 | 0.0 | 0.0 | 0.00 | 0.00 | 0.00 | 52 | 1002.7 |
| 20260505004529 | 65 | 200 | 0.0 | 0.0 | 0.00 | 0.00 | 0.00 | 47 | 1002.7 |
| 20260505004036 | 66 | 200 | 0.0 | 0.0 | 0.00 | 0.00 | 0.00 | 47 | 1002.6 |
| 20260505003605 | 66 | 200 | 0.0 | 0.0 | 0.00 | 0.00 | 0.00 | 46 | 1002.6 |
| 20260505003034 | 67 | 200 | 0.0 | 0.0 | 0.00 | 0.00 | 0.00 | 46 | 1002.7 |
| 20260505002532 | 68 | 200 | 0.0 | 0.0 | 0.00 | 0.00 | 0.00 | 46 | 1002.7 |
| 20260505002046 | 68 | 200 | 0.0 | 0.0 | 0.00 | 0.00 | 0.00 | 43 | 1002.6 |
| 20260505001518 | 69 | 200 | 0.0 | 0.0 | 0.00 | 0.00 | 0.00 | 42 | 1002.6 |
| 20260505001050 | 70 | 200 | 0.0 | 0.0 | 0.00 | 0.00 | 0.00 | 39 | 1002.5 |
| 20260505000524 | 70 | 200 | 0.0 | 0.0 | 0.00 | 0.00 | 0.00 | 40 | 1002.5 |
| 20260505000051 | 71 | 206 | 0.0 | 0.0 | 0.00 | 0.00 | 0.00 | 40 | 1002.5 |
| 20260504235525 | 71 | 206 | 0.0 | 0.0 | 0.00 | 0.00 | 0.00 | 38 | 1002.5 |
| 20260504235042 | 72 | 206 | 0.0 | 0.0 | 0.00 | 0.00 | 0.00 | 37 | 1002.4 |
| 20260504234532 | 72 | 194 | 0.0 | 0.0 | 0.00 | 0.00 | 0.00 | 38 | 1002.3 |
| 20260504234043 | 72 | 194 | 0.0 | 0.0 | 0.00 | 0.00 | 0.00 | 36 | 1002.4 |
| 20260504233539 | 72 | 194 | 0.0 | 0.0 | 0.00 | 0.00 | 0.00 | 35 | 1002.4 |
| 20260504233030 | 73 | 194 | 0.0 | 0.0 | 0.00 | 0.00 | 0.00 | 36 | 1002.5 |
| 20260504232523 | 73 | 194 | 0.0 | 2.0 | 0.00 | 0.00 | 0.00 | 35 | 1002.5 |
| 20260504232049 | 73 | 194 | 0.0 | 2.0 | 0.00 | 0.00 | 0.00 | 35 | 1002.5 |
| 20260504231537 | 73 | 194 | 0.0 | 3.0 | 0.00 | 0.00 | 0.00 | 35 | 1002.5 |
| 20260504231030 | 73 | 188 | 1.0 | 3.0 | 0.00 | 0.00 | 0.00 | 36 | 1002.4 |
| 20260504230539 | 74 | 189 | 0.0 | 3.0 | 0.00 | 0.00 | 0.00 | 34 | 1002.4 |
| 20260504230110 | 74 | 189 | 0.0 | 3.0 | 0.00 | 0.00 | 0.00 | 34 | 1002.3 |
| 20260504225525 | 75 | 189 | 0.0 | 4.0 | 0.00 | 0.00 | 0.00 | 33 | 1002.3 |
| 20260504225044 | 75 | 225 | 2.0 | 6.0 | 0.00 | 0.00 | 0.00 | 33 | 1002.3 |
| 20260504224610 | 75 | 215 | 2.0 | 4.0 | 0.00 | 0.00 | 0.00 | 34 | 1002.3 |
| 20260504224022 | 75 | 274 | 2.0 | 5.0 | 0.00 | 0.00 | 0.00 | 35 | 1002.3 |
| 20260504223545 | 75 | 165 | 3.0 | 5.0 | 0.00 | 0.00 | 0.00 | 32 | 1002.3 |
| 20260504223028 | 75 | 205 | 1.0 | 5.0 | 0.00 | 0.00 | 0.00 | 34 | 1002.4 |
| 20260504222549 | 75 | 250 | 2.0 | 5.0 | 0.00 | 0.00 | 0.00 | 33 | 1002.3 |
| 20260504222030 | 75 | 236 | 2.0 | 7.0 | 0.00 | 0.00 | 0.00 | 33 | 1002.3 |
| 20260504221518 | 75 | 219 | 2.0 | 7.0 | 0.00 | 0.00 | 0.00 | 35 | 1002.4 |
| 20260504221110 | 75 | 173 | 2.0 | 9.0 | 0.00 | 0.00 | 0.00 | 33 | 1002.3 |
| 20260504220522 | 75 | 184 | 6.0 | 9.0 | 0.00 | 0.00 | 0.00 | 33 | 1002.4 |
| 20260504220041 | 75 | 210 | 4.0 | 6.0 | 0.00 | 0.00 | 0.00 | 34 | 1002.5 |
| 20260504215518 | 75 | 246 | 2.0 | 6.0 | 0.00 | 0.00 | 0.00 | 35 | 1002.5 |
| 20260504215046 | 75 | 199 | 3.0 | 9.0 | 0.00 | 0.00 | 0.00 | 35 | 1002.6 |
| 20260504214540 | 75 | 186 | 5.0 | 9.0 | 0.00 | 0.00 | 0.00 | 34 | 1002.6 |
| 20260504214046 | 75 | 196 | 2.0 | 7.0 | 0.00 | 0.00 | 0.00 | 37 | 1002.7 |
| 20260504213522 | 75 | 238 | 3.0 | 7.0 | 0.00 | 0.00 | 0.00 | 34 | 1002.7 |
| 20260504213041 | 75 | 190 | 3.0 | 7.0 | 0.00 | 0.00 | 0.00 | 34 | 1002.7 |
| 20260504212534 | 75 | 200 | 5.0 | 8.0 | 0.00 | 0.00 | 0.00 | 35 | 1002.7 |
| 20260504212042 | 75 | 193 | 4.0 | 8.0 | 0.00 | 0.00 | 0.00 | 33 | 1002.8 |
| 20260504211534 | 75 | 191 | 4.0 | 8.0 | 0.00 | 0.00 | 0.00 | 35 | 1002.8 |
| 20260504211043 | 75 | 188 | 3.0 | 13.0 | 0.00 | 0.00 | 0.00 | 36 | 1002.8 |
| 20260504210546 | 75 | 180 | 7.0 | 13.0 | 0.00 | 0.00 | 0.00 | 33 | 1002.9 |
| 20260504210021 | 75 | 195 | 6.0 | 10.0 | 0.00 | 0.00 | 0.00 | 34 | 1003.0 |
| 20260504205548 | 75 | 253 | 4.0 | 10.0 | 0.00 | 0.00 | 0.00 | 37 | 1002.8 |
| 20260504205026 | 74 | 226 | 6.0 | 9.0 | 0.00 | 0.00 | 0.00 | 35 | 1002.8 |
| 20260504204522 | 74 | 193 | 5.0 | 13.0 | 0.00 | 0.00 | 0.00 | 35 | 1003.0 |
| 20260504204055 | 74 | 193 | 8.0 | 13.0 | 0.00 | 0.00 | 0.00 | 35 | 1003.0 |
| 20260504203601 | 74 | 192 | 5.0 | 10.0 | 0.00 | 0.00 | 0.00 | 36 | 1003.0 |
| 20260504203018 | 75 | 253 | 3.0 | 10.0 | 0.00 | 0.00 | 0.00 | 37 | 1003.1 |
| 20260504202547 | 75 | 247 | 4.0 | 10.0 | 0.00 | 0.00 | 0.00 | 37 | 1003.3 |
| 20260504202035 | 75 | 179 | 5.0 | 9.0 | 0.00 | 0.00 | 0.00 | 37 | 1003.3 |
| 20260504201549 | 74 | 238 | 3.0 | 9.0 | 0.00 | 0.00 | 0.00 | 38 | 1003.3 |
| 20260504201033 | 74 | 192 | 4.0 | 9.0 | 0.00 | 0.00 | 0.00 | 39 | 1003.4 |
| 20260504200602 | 74 | 214 | 3.0 | 11.0 | 0.00 | 0.00 | 0.00 | 38 | 1003.5 |
| 20260504200027 | 74 | 303 | 3.0 | 13.0 | 0.00 | 0.00 | 0.00 | 39 | 1003.5 |
| 20260504195518 | 74 | 242 | 5.0 | 13.0 | 0.00 | 0.00 | 0.00 | 37 | 1003.7 |
| 20260504195026 | 73 | 205 | 5.0 | 12.0 | 0.00 | 0.00 | 0.00 | 38 | 1003.7 |
| 20260504194534 | 73 | 224 | 4.0 | 7.0 | 0.00 | 0.00 | 0.00 | 40 | 1003.8 |
| 20260504194029 | 74 | 204 | 3.0 | 9.0 | 0.00 | 0.00 | 0.00 | 40 | 1003.8 |
| 20260504193538 | 74 | 192 | 4.0 | 11.0 | 0.00 | 0.00 | 0.00 | 41 | 1003.8 |
| 20260504193027 | 73 | 206 | 6.0 | 11.0 | 0.00 | 0.00 | 0.00 | 41 | 1003.9 |
| 20260504192539 | 73 | 232 | 3.0 | 8.0 | 0.00 | 0.00 | 0.00 | 41 | 1003.9 |
| 20260504192024 | 73 | 254 | 5.0 | 9.0 | 0.00 | 0.00 | 0.00 | 39 | 1003.9 |
| 20260504191524 | 73 | 240 | 6.0 | 15.0 | 0.00 | 0.00 | 0.00 | 40 | 1003.9 |
| 20260504191033 | 74 | 196 | 6.0 | 12.0 | 0.00 | 0.00 | 0.00 | 41 | 1003.8 |
| 20260504190522 | 74 | 211 | 4.0 | 9.0 | 0.00 | 0.00 | 0.00 | 43 | 1004.0 |
| 20260504190031 | 73 | 233 | 5.0 | 9.0 | 0.00 | 0.00 | 0.00 | 44 | 1004.2 |
| 20260504185526 | 73 | 187 | 6.0 | 15.0 | 0.00 | 0.00 | 0.00 | 43 | 1004.1 |
| 20260504185025 | 73 | 205 | 5.0 | 15.0 | 0.00 | 0.00 | 0.00 | 42 | 1004.2 |
| 20260504184517 | 73 | 258 | 6.0 | 15.0 | 0.00 | 0.00 | 0.00 | 43 | 1004.2 |
| 20260504184028 | 73 | 195 | 5.0 | 11.0 | 0.00 | 0.00 | 0.00 | 44 | 1004.3 |
| 20260504183529 | 73 | 184 | 5.0 | 11.0 | 0.00 | 0.00 | 0.00 | 44 | 1004.5 |
| 20260504183036 | 72 | 198 | 5.0 | 13.0 | 0.00 | 0.00 | 0.00 | 45 | 1004.5 |
| 20260504182522 | 72 | 181 | 6.0 | 13.0 | 0.00 | 0.00 | 0.00 | 45 | 1004.4 |
| 20260504182036 | 72 | 197 | 5.0 | 9.0 | 0.00 | 0.00 | 0.00 | 44 | 1004.6 |
| 20260504181526 | 72 | 188 | 4.0 | 8.0 | 0.00 | 0.00 | 0.00 | 46 | 1004.6 |
| 20260504181046 | 72 | 272 | 4.0 | 10.0 | 0.00 | 0.00 | 0.00 | 47 | 1004.6 |
| 20260504180522 | 72 | 242 | 4.0 | 11.0 | 0.00 | 0.00 | 0.00 | 46 | 1004.6 |
| 20260504180022 | 72 | 238 | 6.0 | 11.0 | 0.00 | 0.00 | 0.00 | 45 | 1004.7 |
| 20260504175551 | 72 | 212 | 4.0 | 12.0 | 0.00 | 0.00 | 0.00 | 47 | 1004.8 |
| 20260504175037 | 71 | 211 | 7.0 | 12.0 | 0.00 | 0.00 | 0.00 | 47 | 1004.8 |
| 20260504174526 | 71 | 185 | 5.0 | 9.0 | 0.00 | 0.00 | 0.00 | 47 | 1004.9 |
| 20260504174036 | 71 | 252 | 6.0 | 12.0 | 0.00 | 0.00 | 0.00 | 46 | 1004.9 |
| 20260504173531 | 71 | 231 | 6.0 | 14.0 | 0.00 | 0.00 | 0.00 | 48 | 1004.8 |
| 20260504173037 | 71 | 220 | 6.0 | 14.0 | 0.00 | 0.00 | 0.00 | 46 | 1004.9 |
| 20260504172529 | 71 | 254 | 5.0 | 14.0 | 0.00 | 0.00 | 0.00 | 48 | 1004.9 |
| 20260504172104 | 71 | 182 | 8.0 | 14.0 | 0.00 | 0.00 | 0.00 | 46 | 1004.9 |
| 20260504171612 | 70 | 255 | 5.0 | 12.0 | 0.00 | 0.00 | 0.00 | 46 | 1005.1 |
| 20260504171028 | 70 | 211 | 6.0 | 17.0 | 0.00 | 0.00 | 0.00 | 48 | 1005.1 |
| 20260504170549 | 70 | 210 | 9.0 | 17.0 | 0.00 | 0.00 | 0.00 | 46 | 1005.1 |
| 20260504151024 | 65 | 196 | 6.0 | 11.0 | 0.00 | 0.00 | 0.00 | 51 | 1006.1 |
| 20260504150553 | 65 | 203 | 5.0 | 11.0 | 0.00 | 0.00 | 0.00 | 51 | 1006.2 |
| 20260504140522 | 63 | 197 | 5.0 | 14.0 | 0.00 | 0.00 | 0.00 | 50 | 1006.1 |
| 20260504130525 | 60 | 186 | 4.0 | 10.0 | 0.00 | 0.00 | 0.00 | 53 | 1006.7 |
| 20260504110549 | 54 | 194 | 4.0 | 8.0 | 0.00 | 0.00 | 0.00 | 55 | 1006.9 |
| 20260504100528 | 53 | 200 | 4.0 | 7.0 | 0.00 | 0.00 | 0.00 | 55 | 1006.7 |
| 20260504081550 | 52 | 199 | 4.0 | 7.0 | 0.00 | 0.00 | 0.00 | 56 | 1007.4 |
| 20260504081047 | 53 | 205 | 4.0 | 7.0 | 0.00 | 0.00 | 0.00 | 56 | 1007.4 |
| 20260504080522 | 53 | 193 | 5.0 | 10.0 | 0.00 | 0.00 | 0.00 | 56 | 1007.5 |